Wind_Speed
8 8 9 9 10 11 11 12 12 14 14 14 13 13 16 17 17 20 21 21 22 22 24 23 22 24 27 25 23 24 24 22 22 24 24 24 26 26 27 27 26 26
11 11 11 12 13 13 13 12 11 12 12 12 13 14 16 17 18 20 20 21 22 21 23 23 20 22 26 24 20 22 24 22 22 23 24 25 25 25 25 25 24 25
12 13 13 14 14 14 14 13 12 11 12 13 14 15 16 17 18 19 20 21 21 19 19 19 17 18 21 20 18 21 23 22 22 21 21 23 24 24 24 25 25 25
14 14 14 15 15 15 15 15 15 13 13 14 15 16 17 17 16 17 19 21 20 16 15 16 16 15 16 17 18 20 21 22 22 21 21 22 23 24 24 24 25 25
15 16 15 15 15 16 16 16 16 16 15 16 16 17 18 17 16 16 17 19 17 14 13 14 16 16 15 16 19 20 21 21 20 20 22 22 22 24 25 24 24 24
17 16 16 15 15 15 16 16 17 18 16 16 17 18 18 17 16 16 17 17 17 16 15 14 14 15 17 16 16 17 20 21 17 16 22 24 22 22 23 24 24 24
17 16 15 14 14 15 16 16 18 18 16 15 17 17 16 16 16 16 16 17 17 18 18 17 14 14 15 15 14 14 18 20 17 16 20 23 22 21 22 24 24 25
16 16 15 15 16 17 18 18 18 18 17 17 18 18 16 15 15 16 15 16 18 18 18 17 15 12 11 12 14 16 18 19 18 19 19 19 20 22 22 23 23 24
15 16 17 18 19 19 19 18 18 18 18 18 18 17 16 15 15 15 15 16 17 16 15 14 13 11 11 12 15 17 18 18 20 22 22 19 19 21 22 22 22 22
18 19 19 20 20 19 19 19 19 18 18 18 18 17 16 16 15 14 15 15 15 14 12 10 9 9 10 11 12 13 16 18 18 21 22 21 20 20 20 21 20 19
20 20 21 22 21 21 20 20 20 20 19 18 18 17 16 16 15 14 13 14 14 13 11 9 7 8 11 12 10 10 14 16 16 18 21 23 22 20 18 18 17 16
20 21 22 23 22 22 21 20 20 20 20 20 19 19 18 17 16 14 12 13 13 11 10 8 5 5 8 10 10 11 13 14 14 16 18 20 21 19 16 14 14 16
21 21 22 22 22 22 21 21 20 19 20 20 21 21 21 19 17 16 14 13 12 10 9 6 2 3 6 8 9 11 13 14 14 15 16 16 16 15 13 13 14 17
21 21 21 21 21 22 22 22 21 21 20 20 21 22 22 20 18 17 16 15 12 11 9 5 1 3 6 7 7 8 11 13 13 14 13 12 11 10 11 14 15 15
22 21 21 20 20 22 22 22 22 22 22 22 22 23 23 22 21 20 19 18 16 12 8 3 0 2 4 5 5 6 9 10 11 12 11 11 11 12 13 15 15 13
21 21 20 20 21 22 21 21 22 23 23 24 23 23 24 24 23 23 22 21 18 15 11 6 1 3 4 6 5 4 5 7 7 8 10 10 10 12 14 14 13 13
20 20 20 21 22 22 21 20 21 23 24 24 23 23 24 24 24 23 23 23 20 17 15 11 6 1 2 5 5 2 3 5 5 5 8 7 7 8 11 11 11 11
21 20 20 21 22 21 20 20 21 24 25 25 24 24 24 24 24 22 22 23 22 19 16 13 9 6 5 5 4 5 6 5 6 7 7 8 6 6 8 9 8 7
21 21 20 21 21 20 20 21 23 25 26 26 26 26 27 27 25 23 23 23 23 21 17 14 11 9 8 8 8 9 10 11 13 12 10 10 9 7 7 7 6 5
20 21 21 21 20 21 21 22 23 25 26 26 27 28 30 30 29 27 26 25 24 23 19 15 14 13 12 12 13 14 14 15 17 17 16 14 12 10 8 7 5 4
20 20 20 21 21 21 22 23 23 24 25 26 27 29 29 30 30 30 29 29 28 26 24 20 18 20 19 17 17 17 16 17 18 19 20 20 18 16 13 11 9 8
19 19 20 20 21 22 22 22 23 24 25 25 27 29 30 31 32 33 32 33 32 31 30 26 21 23 25 23 20 19 19 20 22 24 25 26 24 22 19 16 14 12
20 19 20 21 22 22 22 22 22 23 24 25 27 29 31 32 33 34 35 35 34 34 33 29 25 26 28 27 23 22 24 27 29 31 33 33 33 31 29 27 23 17
20 20 20 21 22 22 23 23 23 23 22 23 26 28 30 30 32 35 38 38 36 35 34 32 30 29 30 30 27 26 28 31 34 36 38 38 38 38 36 36 34 28
20 20 21 22 22 22 22 22 23 23 22 23 24 25 26 28 32 36 39 39 38 37 36 34 33 31 30 31 32 31 31 32 33 36 39 38 39 40 40 39 38 36
20 21 21 22 23 23 23 23 23 23 24 25 25 25 26 28 30 34 38 39 40 42 41 39 36 34 31 31 32 32 32 33 33 34 37 38 38 39 40 40 40 38
Wind_Direction
15 4 358 351 344 340 335 328 319 315 315 316 315 310 307 308 304 299 298 293 281 270 267 264 259 260 260 250 238 236 237 235 237 238 233 228 224 217 213 213 212 209
15 11 4 356 350 346 342 336 329 326 326 325 322 318 314 312 308 304 301 297 287 276 268 263 259 262 263 256 242 235 234 230 230 235 234 229 225 221 218 215 212 210
14 14 7 2 360 358 355 353 350 345 336 327 321 320 320 317 312 307 301 297 294 287 274 264 266 270 264 257 246 237 235 231 227 230 232 227 223 221 219 216 211 210
17 14 9 6 2 357 354 352 352 348 339 329 322 323 327 325 318 308 298 297 296 291 278 264 261 262 260 256 247 238 236 234 227 223 223 221 220 219 217 215 212 208
22 18 14 10 4 357 355 355 352 347 340 332 328 329 330 328 322 308 295 293 291 283 273 261 251 244 246 248 240 231 229 230 224 220 223 223 220 219 218 216 215 211
22 19 14 8 3 357 357 356 349 345 342 334 329 329 330 328 323 311 301 297 291 281 272 264 253 243 240 244 242 230 225 227 224 220 225 225 221 220 218 216 214 211
20 17 13 7 3 0 360 357 350 349 347 338 331 330 331 330 327 319 313 310 302 290 279 272 266 254 241 241 244 230 221 225 221 213 221 222 220 221 218 214 212 210
21 17 15 11 6 4 2 359 355 353 350 343 336 332 332 332 330 325 321 321 314 300 286 279 273 261 244 235 230 217 212 214 204 200 209 213 217 222 216 212 213 212
22 17 15 12 8 7 7 5 1 357 353 350 343 336 336 338 334 327 323 322 319 312 303 290 273 258 245 234 226 214 207 207 204 203 205 202 210 221 216 212 216 217
22 20 18 16 13 13 15 14 10 4 0 358 353 346 344 345 343 335 328 324 320 318 316 301 275 258 240 224 219 213 205 206 209 210 206 199 205 218 218 215 217 219
23 25 23 22 21 20 22 22 17 13 11 9 5 358 352 350 349 343 333 326 322 321 316 298 276 256 236 218 205 202 202 206 210 209 205 202 206 214 217 216 216 216
26 29 28 27 26 26 26 23 18 16 16 18 17 12 5 359 353 350 340 328 324 326 321 303 284 255 237 223 206 199 200 203 207 206 205 208 211 212 213 211 211 216
31 32 31 30 29 28 25 22 18 15 15 19 22 19 14 7 1 356 349 341 337 341 341 329 308 250 230 214 202 203 202 199 200 203 207 212 212 209 211 213 215 220
35 36 33 32 31 27 24 22 22 20 19 22 26 25 21 20 19 11 5 6 7 5 1 357 335 259 235 214 203 210 210 205 204 206 209 212 212 209 212 215 215 217
36 37 35 36 35 30 27 26 25 24 26 28 31 32 30 32 35 31 24 23 23 23 27 32 264 255 243 229 221 222 223 221 215 205 196 197 207 209 208 211 211 204
38 38 37 38 39 35 31 28 27 28 32 33 34 35 34 37 40 39 36 33 27 26 39 55 82 244 230 219 220 226 227 227 220 195 173 177 201 200 185 191 206 204
38 40 41 41 41 38 34 31 32 34 36 36 35 34 34 37 41 41 42 41 37 33 38 50 57 52 186 196 205 176 153 182 180 154 142 152 195 194 167 173 202 208
39 41 44 45 43 40 37 36 37 39 39 37 35 34 36 39 42 44 45 46 45 42 43 51 63 79 97 125 143 109 100 117 111 99 100 106 125 152 157 168 185 189
41 42 44 46 44 40 40 40 40 41 41 40 39 40 44 46 48 50 51 49 46 45 48 56 71 89 92 92 95 88 83 84 84 85 91 94 98 111 137 155 159 163
44 44 43 45 45 43 44 45 45 45 45 44 43 44 45 46 48 50 51 50 48 48 51 61 77 87 84 83 86 85 85 86 86 88 88 87 91 98 110 120 116 140
46 46 45 46 47 48 49 50 50 49 49 48 47 46 45 46 47 49 49 51 52 52 55 63 81 93 94 92 91 89 90 88 86 85 81 77 81 90 99 106 102 114
48 49 49 49 50 51 52 53 54 52 52 53 52 50 49 49 49 48 49 53 56 56 58 62 72 88 98 99 94 92 92 88 86 84 80 75 74 78 85 91 95 109
50 52 52 53 54 53 53 54 57 57 57 57 56 54 52 51 50 50 50 54 58 59 61 64 64 73 89 96 95 95 94 90 87 83 78 73 70 70 73 75 79 93
56 56 56 57 57 56 56 57 60 61 61 61 61 59 56 54 53 53 53 55 58 59 63 67 67 72 86 93 93 94 92 90 88 84 77 73 71 70 70 70 73 79
62 63 61 62 60 60 62 63 63 64 65 65 64 62 60 58 56 56 56 55 56 60 65 69 70 74 86 92 92 92 92 90 88 84 79 74 71 71 69 68 70 74
68 69 68 67 65 64 67 69 70 72 71 69 68 66 65 63 60 60 59 57 57 60 64 67 68 71 80 88 92 94 94 92 89 86 83 79 75 72 69 66 68 71
Height
805 805 805 805 805 804 803 803 802 801 800 799 799 798 796 796 795 793 792 792 791 790 790 790 790 790 790 789 789 790 792 794 793 794 796 797 798 797 797 797 798 799
804 804 804 804 803 802 802 801 800 799 798 798 797 796 795 794 792 791 790 788 786 786 785 786 787 787 788 788 787 787 790 791 791 791 794 796 797 797 797 797 798 798
803 803 803 802 802 801 800 799 799 798 797 796 795 794 793 792 790 788 786 784 782 782 782 783 784 786 787 787 787 786 787 789 789 789 791 794 796 797 797 797 798 798
803 803 802 802 801 800 799 798 797 796 796 794 794 793 791 790 788 786 784 781 780 780 780 780 781 783 783 784 785 785 786 787 788 788 789 792 795 795 797 798 798 798
802 802 801 801 800 799 798 796 796 795 794 793 792 791 789 787 785 783 782 780 778 778 777 777 777 777 778 779 781 782 783 784 786 787 788 791 793 795 796 797 798 798
802 801 800 800 799 798 797 795 795 793 792 791 790 789 787 785 783 781 780 779 778 777 776 775 774 774 775 776 776 778 780 782 784 787 788 789 792 794 795 796 797 797
801 801 800 799 798 797 796 795 794 792 791 790 788 787 785 784 782 780 779 778 777 776 775 775 774 773 773 773 773 775 777 778 781 785 786 787 790 793 794 794 794 794
802 801 800 799 797 796 795 794 793 791 790 789 787 786 784 782 781 780 778 777 775 774 774 773 773 772 772 772 772 773 774 775 778 781 783 784 786 789 790 791 791 791
802 800 799 798 796 795 794 793 792 791 789 788 786 784 783 781 780 779 778 776 774 773 773 772 772 771 770 771 771 772 773 773 775 777 778 781 782 785 787 787 788 789
801 800 799 798 796 795 794 793 792 791 789 788 786 784 782 780 779 778 777 776 774 773 772 772 771 770 770 770 769 771 771 772 772 774 776 778 779 782 785 786 787 789
801 800 799 797 796 795 794 793 792 791 789 788 786 784 782 780 779 778 777 776 774 773 772 771 770 770 770 770 770 770 771 771 771 773 775 776 778 781 784 786 788 789
801 800 799 798 797 796 795 794 793 791 790 788 786 784 783 781 779 778 777 776 775 773 772 771 770 770 770 770 770 771 771 771 772 773 774 776 778 781 784 787 789 789
802 801 800 799 798 797 796 795 793 792 790 788 787 785 783 781 779 778 777 776 775 773 773 772 771 770 769 769 770 771 772 773 773 774 775 777 779 781 783 786 787 786
803 802 801 800 799 798 797 795 794 793 791 789 787 786 784 782 780 779 777 776 775 773 773 772 772 770 769 770 771 772 773 773 774 775 776 778 780 781 783 784 785 785
804 803 802 802 801 799 798 797 795 794 792 790 788 787 785 783 781 780 778 777 776 774 773 772 772 771 770 771 771 772 773 774 774 775 776 779 780 781 782 783 783 784
805 804 804 803 802 801 800 798 797 795 793 791 789 788 787 785 783 781 780 778 777 776 775 773 772 772 771 771 771 772 773 774 775 776 777 779 780 780 781 782 782 783
806 806 805 804 804 803 801 800 798 796 794 792 790 789 788 786 784 782 781 780 779 777 776 775 773 772 772 772 772 773 773 774 775 777 777 778 779 779 781 782 782 782
807 807 806 806 805 804 803 802 800 798 796 794 792 791 790 787 785 784 783 781 780 779 778 776 775 774 773 773 773 773 775 775 776 777 778 779 779 779 781 781 782 782
809 808 807 807 806 806 805 803 801 800 798 797 795 794 792 789 788 786 784 783 782 781 780 778 777 775 774 775 775 775 776 776 777 778 779 780 780 781 782 782 783 784
810 809 809 809 808 807 806 805 803 802 801 800 798 796 794 792 791 789 787 786 784 783 782 780 778 777 776 776 777 777 777 778 778 779 780 780 781 781 782 782 784 784
812 811 810 810 809 808 807 806 806 804 804 803 801 799 797 795 794 792 790 788 786 785 784 782 780 779 779 778 778 778 779 779 780 780 781 781 782 782 782 782 784 784
813 813 812 811 811 810 809 808 808 807 807 806 804 803 801 799 797 795 793 791 789 787 785 784 783 781 780 780 780 781 782 782 782 783 783 784 784 784 784 784 785 785
815 814 814 813 812 812 811 810 810 810 809 809 807 806 804 802 801 800 797 794 792 790 789 789 788 786 784 782 783 784 784 785 785 786 787 788 788 788 787 787 787 787
817 816 815 815 814 814 813 812 812 812 812 811 810 809 808 807 806 803 801 799 796 795 794 793 793 792 789 788 787 788 788 789 789 788 790 792 792 792 792 791 791 791
818 818 817 816 816 816 815 815 814 814 814 814 813 812 811 811 809 807 805 804 802 800 798 797 797 796 795 793 792 792 793 793 792 792 793 796 796 796 796 796 795 795
819 819 819 818 818 818 817 817 817 817 817 816 816 815 814 814 813 811 810 809 808 805 803 802 802 801 800 797 796 796 797 796 795 796 797 799 799 799 800 801 800 800